Main page
METAR-TAF:

METAR-TAF

Airports :

RNAS Culdrose (HMS Seahawk)

Culdrose, England

latitude: 50-05N, longitude: 005-15W, elevation: 78 m

Current weather observation

The report was made 52 minutes ago, at 09:50 UTC
Wind 4 kt from the West/Southwest
Temperature 16°C
Humidity 100%
Pressure 1020 hPa
Visibility 10 km or more

METAR: EGDR 230950Z AUTO 24004KT 9999 OVC003/// 16/16 Q1020

Time: 11:42 (10:42 UTC)


TAF: missing

Weather observations and forecasts of more than 4000 airports (METAR and TAF reports).

The available stations are represented by yellow and red dots on the map.

Hover mouse over dot to see the name of the station.

Then click to see weather observations and forecasts.

To change the map : click on the green buttons with a black cross to zoom in, on the green button with a dash to zoom out, or on the green arrows for adjacent maps.


METAR-TAF: